Regional Weather Roundup
Issued by NWS

Home | Current Version | Previous Version | Text Only | Print | Product List | Glossary Off
Versions: 1 2 3 4 5 6 7 8 9 10 11 12 13 14 15 16 17 18 19 20 21 22 23 24 25 26 27 28 29 30 31 32 33 34 35 36 37 38 39 40 41 42 43 44 45 46 47 48 49 50

000
ASUS43 KLSX 230110
RWRMO

WEATHER SUMMARY FOR MISSOURI
NATIONAL WEATHER SERVICE SPRINGFIELD MO
800 PM CDT TUE MAY 22 2018

NOTE: "FAIR" INDICATES FEW OR NO CLOUDS BELOW 12,000 FEET WITH NO
       SIGNIFICANT WEATHER AND/OR OBSTRUCTIONS TO VISIBILITY.
       CURRENT SKY AND/OR WEATHER CONDITIONS ARE NOT AVAILABLE FOR
       CHILLICOTHE AND FARMINGTON.

MOZ001>031-035>038-043-044-053-054-230200-
...NORTHERN AND WESTERN MISSOURI...

CITY           SKY/WX    TMP DP  RH WIND       PRES   REMARKS
KANSAS CTY INT PTCLDY    78  64  61 S8        29.99R
KANSAS C DTWN  CLEAR     83  62  49 SE10      29.97S
LEE`S SUMMIT   CLEAR     80  65  59 S9        30.00R
ST JOSEPH      CLEAR     82  63  52 SE10      29.97R
CHILLICOTHE      N/A     81  59  47 S5        30.00R
KIRKSVILLE     CLEAR     78  64  61 S5        30.02R

$$
MOZ066>068-077>081-088>096-101>105-230200-
...SOUTHWEST MISSOURI...

CITY           SKY/WX    TMP DP  RH WIND       PRES   REMARKS
SPRINGFIELD    PTCLDY    80  68  66 E6        30.01R
JOPLIN         PTCLDY    81  68  64 NE6       29.98F
BRANSON        MOCLDY    75  66  73 S6        30.03R

$$
MOZ032>034-039>042-045>050-055>058-069>072-230200-
...CENTRAL MISSOURI...

CITY           SKY/WX    TMP DP  RH WIND       PRES   REMARKS
COLUMBIA       CLEAR     79  64  60 CALM      30.02R
JEFFERSON CITY CLEAR     80  64  58 E3        30.00R
ROLLA          CLEAR     76  63  64 E3        30.03S
SEDALIA        CLEAR     79  66  64 SE5       30.02S
WHITEMAN AFB   PTCLDY    79  64  61 SE3       29.96S
WARRENSBURG    CLEAR     77  63  61 CALM      30.00R
OSAGE BEACH    CLEAR     74  66  76 CALM      30.02S

$$
MOZ051-052-059>065-230200-
...EAST CENTRAL MISSOURI...

CITY           SKY/WX    TMP DP  RH WIND       PRES   REMARKS
ST LOUIS INTL  PTCLDY    80  63  55 NE7       30.01R
SPIRIT OF STL  CLEAR     77  69  76 CALM      30.00R
ST CHARLES     CLEAR     79  69  71 E3        30.00R

$$
MOZ072>076-082>087-097>100-106>115-230200-
...SOUTH CENTRAL AND SOUTHEAST MISSOURI...

CITY           SKY/WX    TMP DP  RH WIND       PRES   REMARKS
CAPE GIRARDEAU FAIR      82  66  58 N6        29.98S
FARMINGTON     CLEAR     77  66  68 CALM      30.03S
POPLAR BLUFF   FAIR      79  72  79 N7        29.99R
WEST PLAINS    CLOUDY    80  69  69 CALM      30.03R

$$




USA.gov is the U.S. government's official web portal to all federal, state and local government web resources and services.